Weather History for KW99 - December, 2004

Change the Weather History Date:

Friday, December 31, 2004

  Actual Average (KEKN) Record (KEKN)
Temperature  
Mean Temperature 49 °F 30 °F  
Max Temperature 66 °F 39 °F 70 °F (1972)
Min Temperature 32 °F 20 °F -5 °F (1983)
Degree Days  
Heating Degree Days 16 35  
Month to date heating degree days 1008  
Since 1 July heating degree days 2291  
Cooling Degree Days 0 0  
Month to date cooling degree days 0  
Year to date cooling degree days 475  
Moisture  
Dew Point 43 °F    
Average Humidity 79    
Maximum Humidity 100    
Minimum Humidity 49    
Precipitation  
Precipitation 0.00 in 0.10 in 1.40 in (1923)
Month to date precipitation 3.26  
Year to date precipitation 45.93  
Snow  
Snow 0.00 in - - ()
Month to date snowfall  
Since 1 September snowfall  
Snow Depth -    
Sea Level Pressure  
Sea Level Pressure 30.29 in    
Wind  
Wind Speed 4 mph (South)    
Max Wind Speed 17 mph    
Max Gust Speed 25 mph    
Visibility 8 miles    
Events      
T = Trace of Precipitation, MM = Missing Value Source: NWS Daily Summary

Daily Weather History Graph

Daily Weather History Graph

Search for Another Location

Airport or City:

Trip Planner

Search our weather history database for the weather conditions in past years. The results will help you decide how hot, cold, wet, or windy it might be!

Date:

Astronomy

Dec. 31, 2004 Rise Set
Actual Time 7:35 AM EST 5:04 PM EST
Civil Twilight 7:05 AM EST 5:34 PM EST
Nautical Twilight 6:32 AM EST 6:07 PM EST
Astronomical Twilight 5:59 AM EST 6:40 PM EST
Moon 9:51 PM EST (12/31) 10:52 AM EST (12/31)
Length of Visible Light 10h 28m
Length of Day
9h 29m
Waning Gibbous, 78% of the Moon is Illuminated
Dec 31
Waning Gibbous
Jan 3
Last Quarter
Jan 10
New
Jan 17
First Quarter
Jan 25
Full

Hourly Weather History & Observations

Time (EST) Temp. Windchill Dew Point Humidity Pressure Visibility Wind Dir Wind Speed Gust Speed Precip Events Conditions
12:15 AM 37.4 °F - 37.4 °F 100% 30.39 in 5.0 mi Calm Calm - N/A   Scattered Clouds
12:35 AM 35.6 °F - 35.6 °F 100% 30.38 in 5.0 mi Calm Calm - N/A   Clear
12:58 AM 33.8 °F - 33.8 °F 100% 30.37 in 4.0 mi Calm Calm - N/A   Clear
1:19 AM 32.0 °F - 32.0 °F 100% 30.37 in 4.0 mi Calm Calm - N/A   Clear
1:39 AM 32.0 °F - 32.0 °F 100% 30.37 in 4.0 mi Calm Calm - N/A   Clear
2:00 AM 35.6 °F - 35.6 °F 100% 30.37 in 5.0 mi Calm Calm - N/A   Clear
2:15 AM 35.6 °F - 35.6 °F 100% 30.37 in 5.0 mi Calm Calm - N/A   Clear
2:36 AM 35.6 °F - 35.6 °F 100% 30.37 in 5.0 mi Calm Calm - N/A   Clear
2:57 AM 35.6 °F - 35.6 °F 100% 30.37 in 4.0 mi Calm Calm - N/A   Clear
3:16 AM 33.8 °F - 33.8 °F 100% 30.36 in 5.0 mi Calm Calm - N/A   Clear
3:38 AM 33.8 °F - 33.8 °F 100% 30.35 in 4.0 mi Calm Calm - N/A   Clear
3:59 AM 35.6 °F 32.8 °F 35.6 °F 100% 30.34 in 4.0 mi WNW 3.5 mph - N/A   Clear
4:15 AM 35.6 °F - 35.6 °F 100% 30.34 in 4.0 mi Calm Calm - N/A   Clear
4:35 AM 35.6 °F - 35.6 °F 100% 30.34 in 4.0 mi Calm Calm - N/A   Clear
5:17 AM 35.6 °F - 35.6 °F 100% 30.32 in 4.0 mi Calm Calm - N/A   Clear
5:35 AM 42.8 °F 40.1 °F 41.0 °F 93% 30.32 in 7.0 mi ESE 4.6 mph - N/A   Clear
5:55 AM 37.4 °F - 37.4 °F 100% 30.31 in 5.0 mi Calm Calm - N/A   Clear
6:19 AM 37.4 °F - 37.4 °F 100% 30.30 in 5.0 mi Calm Calm - N/A   Clear
6:39 AM 39.2 °F 35.0 °F 39.2 °F 100% 30.30 in 7.0 mi East 5.8 mph - N/A   Clear
6:55 AM 50.0 °F - 44.6 °F 82% 30.28 in 10.0 mi East 5.8 mph - N/A   Clear
7:15 AM 48.2 °F - 44.6 °F 87% 30.29 in 10.0 mi ESE 3.5 mph - N/A   Clear
7:35 AM 48.2 °F - 42.8 °F 82% 30.30 in 10.0 mi East 3.5 mph - N/A   Clear
8:15 AM 51.8 °F - 44.6 °F 76% 30.30 in 10.0 mi SSE 9.2 mph - N/A   Clear
8:36 AM 51.8 °F - 44.6 °F 76% 30.30 in 10.0 mi South 9.2 mph - N/A   Scattered Clouds
8:56 AM 51.8 °F - 44.6 °F 76% 30.31 in 10.0 mi SSE 9.2 mph - N/A   Clear
9:16 AM 51.8 °F - 44.6 °F 76% 30.31 in 10.0 mi South 10.4 mph - N/A   Clear
9:35 AM 50.0 °F - 42.8 °F 76% 30.31 in 10.0 mi South 5.8 mph - N/A   Clear
9:56 AM 55.4 °F - 46.4 °F 72% 30.30 in 10.0 mi South 13.8 mph - N/A   Clear
10:19 AM 57.2 °F - 46.4 °F 67% 30.29 in 10.0 mi South 15.0 mph 21.9 mph N/A   Scattered Clouds
10:35 AM 57.2 °F - 46.4 °F 67% 30.29 in 10.0 mi South 17.3 mph 25.3 mph N/A   Clear
10:57 AM 57.2 °F - 44.6 °F 63% 30.28 in 10.0 mi South 11.5 mph 21.9 mph N/A   Clear
11:19 AM 60.8 °F - 46.4 °F 59% 30.27 in 10.0 mi South 12.7 mph - N/A   Clear
11:38 AM 60.8 °F - 46.4 °F 59% 30.25 in 10.0 mi South 13.8 mph 19.6 mph N/A   Clear
12:19 PM 64.4 °F - 46.4 °F 52% 30.22 in 10.0 mi South 12.7 mph - N/A   Clear
12:55 PM 64.4 °F - 46.4 °F 52% 30.20 in 10.0 mi South 10.4 mph 20.7 mph N/A   Clear
1:15 PM 66.2 °F - 46.4 °F 49% 30.19 in 10.0 mi South 11.5 mph 17.3 mph N/A   Clear
1:37 PM 66.2 °F - 46.4 °F 49% 30.19 in 10.0 mi South 13.8 mph 17.3 mph N/A   Mostly Cloudy
1:59 PM 64.4 °F - 46.4 °F 52% 30.19 in 10.0 mi South 8.1 mph - N/A   Overcast
2:15 PM 64.4 °F - 46.4 °F 52% 30.20 in 10.0 mi SSW 9.2 mph - N/A   Overcast
2:55 PM 62.6 °F - 46.4 °F 55% 30.21 in 10.0 mi South 5.8 mph - N/A   Overcast
3:16 PM 62.6 °F - 46.4 °F 55% 30.21 in 10.0 mi South 8.1 mph - N/A   Overcast
3:35 PM 62.6 °F - 50.0 °F 63% 30.22 in 10.0 mi SSW 10.4 mph - N/A   Overcast
3:56 PM 62.6 °F - 51.8 °F 68% 30.22 in 10.0 mi SSW 9.2 mph - N/A   Overcast
4:16 PM 64.4 °F - 51.8 °F 64% 30.24 in 10.0 mi SSW 5.8 mph - N/A   Overcast
4:35 PM 62.6 °F - 50.0 °F 63% 30.24 in 10.0 mi SW 5.8 mph - N/A   Overcast
5:36 PM 60.8 °F - 51.8 °F 72% 30.25 in 10.0 mi South 5.8 mph - N/A   Overcast
5:59 PM 60.8 °F - 51.8 °F 72% 30.25 in 10.0 mi SSW 4.6 mph - N/A   Overcast
6:37 PM 60.8 °F - 51.8 °F 72% 30.25 in 10.0 mi SSW 8.1 mph - N/A   Overcast
6:55 PM 60.8 °F - 51.8 °F 72% 30.26 in 10.0 mi SSW 5.8 mph - N/A   Overcast
7:15 PM 60.8 °F - 50.0 °F 68% 30.27 in 10.0 mi South 4.6 mph - N/A   Overcast
8:37 PM 59.0 °F - 50.0 °F 72% 30.27 in 10.0 mi WSW 3.5 mph - N/A   Overcast
9:15 PM 55.4 °F - 48.2 °F 77% 30.27 in 10.0 mi Calm Calm - N/A   Mostly Cloudy
9:55 PM 57.2 °F - 51.8 °F 82% 30.27 in 10.0 mi East 3.5 mph - N/A   Overcast
10:16 PM 57.2 °F - 51.8 °F 82% 30.27 in 10.0 mi NE 4.6 mph - N/A   Mostly Cloudy
10:35 PM 57.2 °F - 50.0 °F 77% 30.27 in 10.0 mi ESE 5.8 mph - N/A   Scattered Clouds
10:55 PM 55.4 °F - 50.0 °F 82% 30.27 in 10.0 mi East 4.6 mph - N/A   Scattered Clouds
11:15 PM 60.8 °F - 51.8 °F 72% 30.28 in 10.0 mi WSW 9.2 mph - N/A   Scattered Clouds
11:35 PM 60.8 °F - 51.8 °F 72% 30.28 in 10.0 mi WSW 8.1 mph - N/A   Mostly Cloudy
11:55 PM 60.8 °F - 53.6 °F 77% 30.28 in 10.0 mi West 4.6 mph - N/A   Overcast